Lincoln County, Oregon, United States
Lat: 44.65N, Lon: 123.85W
Wx Zone: ORZ004
Local Info
Past Weather Observations for Tuesday, August 26, 2014

NOTE: This archive is for the closest National Weather Service station to Lincoln County. Information may differ from the station used for current weather conditions.

Click here for Long-term Archive

Time Weather Temperature Dewpoint Humidity Pressure Winds Precip Visibility
23:55
Overcast
Fog And Mist
54°F / 12°C 54°F / 12°C 100% 30.06 in
(1018 mb)
N 3.5 mph
(N 6 kph)
- 2SM
23:35
Overcast
Fog
54°F / 12°C 54°F / 12°C 100% 30.06 in
(1018 mb)
N 5.8 mph
(N 9 kph)
- 1/2SM
23:15
Overcast
Fog And Mist
54°F / 12°C 54°F / 12°C 100% 30.06 in
(1018 mb)
N 6.9 mph
(N 11 kph)
- 1SM
22:55
Overcast
Fog And Mist
54°F / 12°C 54°F / 12°C 100% 30.06 in
(1018 mb)
N 4.6 mph
(N 7 kph)
- 3/4SM
22:35
Overcast
Fog And Mist
54°F / 12°C 54°F / 12°C 100% 30.06 in
(1018 mb)
Calm - 3/4SM
22:15
Overcast
Fog And Mist
54°F / 12°C 54°F / 12°C 100% 30.06 in
(1018 mb)
N 4.6 mph
(N 7 kph)
- 3/4SM
21:55
Overcast
Fog And Mist
54°F / 12°C 54°F / 12°C 100% 30.06 in
(1018 mb)
N 4.6 mph
(N 7 kph)
- 1SM
21:35
Overcast
Fog And Mist
55°F / 13°C 54°F / 12°C 94% 30.06 in
(1018 mb)
NNW 6.9 mph
(NNW 11 kph)
- 2SM
21:15
Overcast
Fog And Mist
55°F / 13°C 54°F / 12°C 94% 30.06 in
(1018 mb)
N 9.2 mph
(N 15 kph)
- 1SM
20:55
Overcast
Fog And Mist
55°F / 13°C 54°F / 12°C 94% 30.06 in
(1018 mb)
N 10.4 mph
(N 17 kph)
- 1SM
20:35
Overcast
Fog And Mist
55°F / 13°C 54°F / 12°C 94% 30.06 in
(1018 mb)
N 10.4 mph
(N 17 kph)
- 1SM
20:15
Overcast
55°F / 13°C 54°F / 12°C 94% 30.06 in
(1018 mb)
NNW 9.2 mph
(NNW 15 kph)
- 7SM
19:55
Overcast
55°F / 13°C 54°F / 12°C 94% 30.04 in
(1017 mb)
N 8.1 mph
(N 13 kph)
- 7SM
19:35
Overcast
Fog And Mist
54°F / 12°C 54°F / 12°C 100% 30.04 in
(1017 mb)
NNW 10.4 mph
(NNW 17 kph)
- 3SM
19:15
Overcast
Fog
54°F / 12°C 54°F / 12°C 100% 30.04 in
(1017 mb)
N 12.7 mph
(N 20 kph)
- 1/2SM
18:55
Overcast
Fog And Mist
54°F / 12°C 54°F / 12°C 100% 30.04 in
(1017 mb)
NNW 12.7 mph
(NNW 20 kph)
- 1 1/2SM
18:35
Overcast
Fog And Mist
54°F / 12°C 54°F / 12°C 100% 30.04 in
(1017 mb)
NNW 11.5 mph
(NNW 19 kph)
- 1 1/2SM
18:15
Overcast
Fog And Mist
55°F / 13°C 54°F / 12°C 94% 30.04 in
(1017 mb)
NNW 12.7 mph
(NNW 20 kph)
- 3/4SM
17:55
Overcast
55°F / 13°C 54°F / 12°C 94% 30.04 in
(1017 mb)
NNW 12.7 mph
(NNW 20 kph)
- 7SM
17:35
Overcast
Fog And Mist
55°F / 13°C 54°F / 12°C 94% 30.04 in
(1017 mb)
NNW 16.1 mph
(NNW 26 kph)
- 5SM
17:15
Overcast
Fog And Mist
55°F / 13°C 54°F / 12°C 94% 30.04 in
(1017 mb)
NNW 17.3 mph
(NNW 28 kph)
- 1 1/2SM
16:55
Overcast
Fog And Mist
55°F / 13°C 54°F / 12°C 94% 30.04 in
(1017 mb)
NNW 16.1 mph
(NNW 26 kph)
- 1 1/2SM
16:35
Overcast
Fog And Mist
55°F / 13°C 54°F / 12°C 94% 30.04 in
(1017 mb)
NNW 16.1 mph
(NNW 26 kph)
- 1SM
16:15
Overcast
Fog And Mist
55°F / 13°C 54°F / 12°C 94% 30.06 in
(1018 mb)
NNW 17.3 mph
(NNW 28 kph)
- 3/4SM
15:55
Overcast
Fog And Mist
55°F / 13°C 54°F / 12°C 94% 30.06 in
(1018 mb)
NNW 16.1 mph
(NNW 26 kph)
- 1SM
15:35
Overcast
Fog And Mist
57°F / 14°C 54°F / 12°C 88% 30.06 in
(1018 mb)
NNW 16.1 mph
(NNW 26 kph)
- 3SM
15:15
Partly Cloudy
59°F / 15°C 54°F / 12°C 82% 30.06 in
(1018 mb)
NNW 15 mph
(NNW 24 kph)
- 7SM
14:55
Clear
61°F / 16°C 54°F / 12°C 77% 30.06 in
(1018 mb)
NNW 16.1 mph
(NNW 26 kph)
- 10SM
14:35
Clear
Hazy
59°F / 15°C 54°F / 12°C 82% 30.06 in
(1018 mb)
NNW 17.3 mph
(NNW 28 kph)
- 5SM
14:15
Clear
59°F / 15°C 54°F / 12°C 82% 30.06 in
(1018 mb)
NNW 19.6 mph
(NNW 32 kph)
- 7SM
13:55
Clear
Hazy
59°F / 15°C 54°F / 12°C 82% 30.06 in
(1018 mb)
NNW 19.6 mph
(NNW 32 kph)
- 5SM
13:35
Clear
Hazy
59°F / 15°C 54°F / 12°C 82% 30.06 in
(1018 mb)
NNW 21.9 mph
(NNW 35 kph)
- 2SM
13:15
Clear
Hazy
59°F / 15°C 54°F / 12°C 82% 30.06 in
(1018 mb)
NNW 20.7 mph
(NNW 33 kph)
- 5SM
12:55
Clear
61°F / 16°C 54°F / 12°C 77% 30.06 in
(1018 mb)
NNW 19.6 mph
(NNW 32 kph)
- 7SM
12:35
Clear
Hazy
59°F / 15°C 54°F / 12°C 82% 30.06 in
(1018 mb)
N 20.7 mph
(N 33 kph)
- 2 1/2SM
12:15
Clear
Hazy
61°F / 16°C 54°F / 12°C 77% 30.06 in
(1018 mb)
NNW 17.3 mph
(NNW 28 kph)
- 4SM
11:55
Clear
61°F / 16°C 54°F / 12°C 77% 30.06 in
(1018 mb)
NNW 16.1 mph
(NNW 26 kph)
- 10SM
11:35
Clear
Hazy
61°F / 16°C 52°F / 11°C 72% 30.06 in
(1018 mb)
NNW 13.8 mph
(NNW 22 kph)
- 5SM
11:15
Clear
61°F / 16°C 54°F / 12°C 77% 30.06 in
(1018 mb)
NNW 10.4 mph
(NNW 17 kph)
- 7SM
10:55
Clear
61°F / 16°C 52°F / 11°C 72% 30.06 in
(1018 mb)
NNW 11.5 mph
(NNW 19 kph)
- 7SM
10:35
Clear
59°F / 15°C 52°F / 11°C 77% 30.06 in
(1018 mb)
NNW 9.2 mph
(NNW 15 kph)
- 7SM
10:15
Clear
59°F / 15°C 52°F / 11°C 77% 30.06 in
(1018 mb)
NNW 5.8 mph
(NNW 9 kph)
- 10SM
09:55
Clear
59°F / 15°C 52°F / 11°C 77% 30.06 in
(1018 mb)
NW 8.1 mph
(NW 13 kph)
- 7SM
09:35
Clear
59°F / 15°C 52°F / 11°C 77% 30.06 in
(1018 mb)
NW 4.6 mph
(NW 7 kph)
- 7SM
09:15
Clear
59°F / 15°C 52°F / 11°C 77% 30.06 in
(1018 mb)
NW 4.6 mph
(NW 7 kph)
- 10SM
08:55
Clear
Fog And Mist
55°F / 13°C 52°F / 11°C 88% 30.06 in
(1018 mb)
NW 5.8 mph
(NW 9 kph)
- 5SM
08:35
Clear
Fog And Mist
54°F / 12°C 54°F / 12°C 100% 30.06 in
(1018 mb)
Calm - 5SM
08:15
Clear
Fog And Mist
52°F / 11°C 52°F / 11°C 100% 30.06 in
(1018 mb)
NW 3.5 mph
(NW 6 kph)
- 5SM
07:55
Clear
Fog And Mist
52°F / 11°C 52°F / 11°C 100% 30.06 in
(1018 mb)
NW 5.8 mph
(NW 9 kph)
- 2 1/2SM
07:35
Partly Cloudy
52°F / 11°C 52°F / 11°C 100% 30.06 in
(1018 mb)
Calm - 3SM
07:15
Mostly Cloudy
50°F / 10°C 50°F / 10°C 100% 30.06 in
(1018 mb)
Calm -
06:55
Fair
50°F / 10°C 50°F / 10°C 100% 30.04 in
(1017 mb)
Calm -
06:35
Overcast
46°F / 8°C 46°F / 8°C 100% 30.04 in
(1017 mb)
Calm -
06:15
Overcast
46°F / 8°C 46°F / 8°C 100% 30.04 in
(1017 mb)
N 3.5 mph
(N 6 kph)
-
05:55
Fair
46°F / 8°C 46°F / 8°C 100% 30.04 in
(1017 mb)
NNW 3.5 mph
(NNW 6 kph)
-
05:35
Fair
46°F / 8°C 46°F / 8°C 100% 30.04 in
(1017 mb)
NNW 3.5 mph
(NNW 6 kph)
-
05:15
Fair
46°F / 8°C 45°F / 7°C 93% 30.04 in
(1017 mb)
NNW 3.5 mph
(NNW 6 kph)
-
04:55
Fair
46°F / 8°C 46°F / 8°C 100% N/A Calm -
04:35
Fair
45°F / 7°C 45°F / 7°C 100% 30.04 in
(1017 mb)
Calm -
04:15
Fair
46°F / 8°C 46°F / 8°C 100% 30.04 in
(1017 mb)
Calm -
03:55
Overcast
46°F / 8°C 46°F / 8°C 100% 30.04 in
(1017 mb)
Calm -
03:35
Overcast
46°F / 8°C 46°F / 8°C 100% 30.04 in
(1017 mb)
Calm -
03:15
Fair
46°F / 8°C 46°F / 8°C 100% 30.04 in
(1017 mb)
Calm -
02:55
Fair
46°F / 8°C 46°F / 8°C 100% 30.01 in
(1016 mb)
Calm -
02:35
Fair
46°F / 8°C 46°F / 8°C 100% 30.01 in
(1016 mb)
Calm -
02:15
Mostly Cloudy
48°F / 9°C 48°F / 9°C 100% 30.01 in
(1016 mb)
Calm -
01:55
Fair
48°F / 9°C 48°F / 9°C 100% 30.01 in
(1016 mb)
Calm -
01:35
Fair
48°F / 9°C 46°F / 8°C 94% 30.01 in
(1016 mb)
Calm -
01:15
Fair
48°F / 9°C 46°F / 8°C 94% 30.01 in
(1016 mb)
NNW 3.5 mph
(NNW 6 kph)
-
00:55
Fair
50°F / 10°C 48°F / 9°C 94% 30.01 in
(1016 mb)
Calm -
00:35
Fair
50°F / 10°C 50°F / 10°C 100% 30.01 in
(1016 mb)
Calm -
00:15
Fair
50°F / 10°C 48°F / 9°C 94% 30.01 in
(1016 mb)
Calm -
Time Weather Temperature Dewpoint Humidity Pressure Winds Precip Visibility


Weather for websites

WeatherForYou.com, LLC is not responsible for any damages or problems caused by this service. Current weather conditions are obtained from the closest station including government and personal stations which may have varying degrees of accuracy. Weather forecasts are derived from the NOAA NDFD. Like all things, this site belongs to Jesus Christ... He just trusts me to maintain it. If you have any questions or comments email webmaster@weatherforyou.com

Copyright © 2014, WeatherForYou.com LLC. All rights reserved.